Regional Weather Roundup
Issued by NWS Cleveland, OH

Home | Current Version | Previous Version | Text Only | Print | Product List | Glossary Off
Versions: 1 2 3 4 5 6 7 8 9 10 11 12 13 14 15 16 17 18 19 20 21 22 23 24 25 26 27 28 29 30 31 32 33 34 35 36 37 38 39 40 41 42 43 44 45 46 47 48 49 50

000
ASUS41 KCLE 280912
RWRCLE
OHIO REGIONAL WEATHER ROUNDUP
NATIONAL WEATHER SERVICE WILMINGTON, OH
500 AM EDT THU JUL 28 2016

NOTE: "FAIR" INDICATES FEW OR NO CLOUDS BELOW 12,000 FEET WITH NO
SIGNIFICANT WEATHER AND/OR OBSTRUCTIONS TO VISIBILITY.

OHZ001>008-015>018-024>027-034-035-043-044-281000-
   NORTHWEST OHIO

CITY           SKY/WX    TMP DP  RH WIND       PRES   REMARKS
DEFIANCE       FAIR      71  65  81 CALM      29.90F
FINDLAY        FAIR      74  62  66 NE3       29.89F
TOLEDO EXPRESS FAIR      67  66  97 CALM      29.90F
TOLEDO EXEC    FAIR      70  65  84 CALM      29.91S
LIMA           FAIR      69  67  93 CALM      29.90F
$$

OHZ009>014-019>023-028>033-038-089-281000-
   NORTHEAST OHIO

CITY           SKY/WX    TMP DP  RH WIND       PRES   REMARKS
CLE-HOPKINS    CLOUDY    71  59  65 CALM      29.92F
CLE-LAKEFRONT  FAIR      75  60  59 SE7       29.89S
CUY CO. ARPT   NOT AVBL
LORAIN-ELYRIA  FAIR      64  60  87 CALM      29.91F
ASHTABULA      FAIR      62  61  96 CALM      29.93F
AKRON-CANTON   MOCLDY    69  60  73 NE5       29.92F
WOOSTER        FAIR      66  62  87 CALM      29.93F
MANSFIELD      FAIR      70  61  73 S6        29.93F
YOUNGSTOWN     MOCLDY    64  61  90 E6        29.93F
$$

OHZ042-051>053-060>062-070>072-077>081-281000-
  SOUTHWEST OHIO

CITY           SKY/WX    TMP DP  RH WIND       PRES   REMARKS
CINC-COVINGTON TSTM      75  73  94 CALM      29.91S
CINC-LUNKEN    TSTM      73  72  96 S13       29.91S FOG
HAMILTON       FAIR      73  70  90 CALM      29.90F
DAYTON         MOCLDY    72  64  76 CALM      29.91F
WRIGHT-PAT AFB MOCLDY    74  66  75 E2        29.90F
DAYTON GENERAL FAIR      75  66  73 CALM      29.90F
WILMINGTON     TSTM      73  71  93 S5        29.92S
$$

OHZ036-037-039>041-045>050-054>059-063>069-073>076-082>088-281000-
  CENTRAL AND SOUTHEAST OHIO

CITY           SKY/WX    TMP DP  RH WIND       PRES   REMARKS
COLUMBUS       CLOUDY    77  65  66 SE5       29.90S
OSU AIRPORT    FAIR      74  66  76 NE3       29.90S
BOLTON FIELD   FAIR      73  71  93 CALM      29.90F
RICKENBACK AFB FAIR      74  73  95 SE3       29.89F
NEWARK         FAIR      73  67  81 CALM      29.90F
MARION         FAIR      71  64  78 CALM      29.91F
LANCASTER      CLOUDY    76  73  91 SE6       29.90F
ZANESVILLE     FAIR      76  70  82 S6        29.91F
NEW PHILLY     FAIR      70  63  78 SE3       29.91F
$$



USA.gov is the U.S. government's official web portal to all federal, state and local government web resources and services.